Simultaneous Nadir Overpasses (SNOs) Predictions

Prediction of SNOs between GOES-15 and LANDSAT-8 Satellite Orbit:

Table of predicted SNOs for the next 14.0 days since TLE Epoch: 10/17/2025
Index Date Time (GOES-15) GOES-15 Lat,Lon LANDSAT-8 Lat,Lon Distance(km) Time Diff (sec)
1 10/19/2025 17:59:41 -0.65, 61.51 -0.38, 62.94 161.93 80
2 10/20/2025 06:20:57 0.65, 61.41 1.43, 57.77 413.26 80
3 10/21/2025 17:47:29 -0.66, 61.53 0.28, 65.89 496.50 80
4 10/22/2025 06:08:44 0.65, 61.43 0.82, 60.74 78.68 80
5 10/24/2025 05:59:11 0.66, 61.46 0.20, 63.71 255.52 80
6 10/24/2025 18:20:35 -0.64, 61.56 -1.29, 58.51 346.70 80
7 10/26/2025 18:05:41 -0.66, 61.60 -0.70, 61.49 13.39 80
8 10/28/2025 17:53:27 -0.67, 61.64 -0.09, 64.46 319.97 80
9 10/29/2025 06:14:43 0.65, 61.56 1.12, 59.29 257.15 80
10 10/31/2025 06:05:09 0.66, 61.60 0.49, 62.26 75.96 80
